Regional Weather Roundup
Issued by NWS

Home | Current Version | Previous Version | Graphics & Text | Print | Product List | Glossary On
Versions: 1 2 3 4 5 6 7 8 9 10 11 12 13 14 15 16 17 18 19 20 21 22 23 24 25 26 27 28 29 30 31 32 33 34 35 36 37 38 39 40 41 42 43 44 45 46 47 48 49 50
000
ASUS43 KMKX 261321
RWRWI

WISCONSIN REGIONAL WEATHER ROUNDUP
NATIONAL WEATHER SERVICE MILWAUKEE/SULLIVAN WI
800 AM CDT SUN APR 26 2015

NOTE: "FAIR" INDICATES FEW OR NO CLOUDS BELOW 12,000 FEET WITH NO
SIGNIFICANT WEATHER AND/OR OBSTRUCTIONS TO VISIBILITY.

WIZ001-002-006>008-014>016-023>028-261400-
NORTHWEST WISCONSIN

CITY           SKY/WX    TMP DP  RH WIND       PRES   REMARKS
SUPERIOR ARPT  SUNNY     33  29  86 CALM      30.16R
ASHLAND        SUNNY     34  26  72 CALM      30.15R
HAYWARD        SUNNY     34  25  69 NE5       30.12R WCI  30
SIREN          SUNNY     35  25  67 E3        30.12R
CUMBERLAND     SUNNY     36  23  60 NE7       30.10R WCI  30
RICE LAKE      SUNNY     37  24  60 N3        30.12R
CHETEK         SUNNY     38  23  55 NE3       30.10R
LADYSMITH      SUNNY     39  24  53 E6        30.12R WCI  35
EAU CLAIRE     SUNNY     39  25  57 NE6       30.09R WCI  35
MENOMONIE      SUNNY     41  24  51 CALM      30.10S
NEW RICHMOND   SUNNY     38  24  56 E8        30.09S WCI  32
OSCEOLA        SUNNY     38  25  59 NE6       30.13R WCI  34
$$

WIZ003>005-009-010-017-018-261400-
NORTH CENTRAL WISCONSIN

CITY           SKY/WX    TMP DP  RH WIND       PRES   REMARKS
MANITOWISH WTR SUNNY     36  21  56 N6        30.09R WCI  31
ARBOR VITAE    SUNNY     38  22  52 N8        30.08R WCI  32
WOODRUFF       SUNNY     38  22  52 N8        30.08R WCI  32
RHINELANDER    SUNNY     36  21  54 N5        30.07R WCI  32
EAGLE RIVER    SUNNY     36  19  50 N6        30.07R WCI  31
LAND O LAKES   SUNNY     38  19  44 N7        30.09R WCI  33
PHILLIPS       SUNNY     37  22  54 NE3       30.09R
TOMAHAWK       SUNNY     33  23  65 CALM      30.09R
MEDFORD        SUNNY     36  24  63 NE7       30.07R WCI  30
MERRILL        SUNNY     36  25  63 N3        30.07S
$$

WIZ029-030-035-036-043>047-261400-
CENTRAL WISCONSIN

CITY           SKY/WX    TMP DP  RH WIND       PRES   REMARKS
WAUSAU         SUNNY     38  23  55 N5        30.06R WCI  34
MOSINEE        SUNNY     37  21  52 N7        30.08R WCI  32
MARSHFIELD     SUNNY     39  22  50 NE7       30.06R WCI  34
STEVENS POINT  SUNNY     37  21  53 N7        30.07R WCI  31
WAUPACA        SUNNY     42  22  43 N6        30.07R
WAUTOMA        SUNNY     40  19  43 NE10      30.07R WCI  33
WISC RAPIDS    SUNNY     41  19  41 NE7       30.08R
CAMP DOUGLAS   SUNNY     36  25  64 NE2       30.06R
$$

WIZ011>013-019>022-031-037>040-048>050-261400-
NORTHEAST WISCONSIN

CITY           SKY/WX    TMP DP  RH WIND       PRES   REMARKS
ANTIGO         SUNNY     36  23  59 N7        30.06R WCI  30
SHAWANO        SUNNY     44  22  42 NE6       30.07R
OCONTO         SUNNY     39  23  51 N9        30.05S WCI  33
STURGEON BAY   SUNNY     39  27  60 N9        30.07R WCI  33
GREEN BAY      SUNNY     41  22  46 N9        30.05R
MANITOWOC      SUNNY     40  28  62 N8        30.04R WCI  34
APPLETON       SUNNY     37  19  48 N10       30.05R WCI  30
CLINTONVILLE   SUNNY     39  21  48 NE8       30.06S WCI  34
OSHKOSH        SUNNY     38  23  55 N8        30.05R WCI  32
$$

WIZ032>034-041-042-053>061-261400-
SOUTHWEST WISCONSIN

CITY           SKY/WX    TMP DP  RH WIND       PRES   REMARKS
LA CROSSE      SUNNY     42  26  53 NW5       30.08R
SPARTA         SUNNY     39  24  55 CALM      30.08R
VIROQUA        SUNNY     39  25  55 E8        30.05R WCI  34
BOSCOBEL       SUNNY     36  29  75 CALM      30.06R
PRAIRIE DU CHI SUNNY     35  27  70 CALM      30.05R
PLATTEVILLE    SUNNY     38  28  65 NE15      30.02R WCI  30
$$

WIZ056-057-062-063-064-067-068-261400-
SOUTH CENTRAL WISCONSIN

CITY           SKY/WX    TMP DP  RH WIND       PRES   REMARKS
REEDSBURG      SUNNY     37  23  59 NE5       30.06R WCI  33
BARABOO/DELLS  SUNNY     36  23  59 E3        30.06R
LONE ROCK      SUNNY     37  27  67 CALM      30.06R
MINERAL POINT  SUNNY     39  27  60 NE14      30.02R WCI  31
MADISON        MOSUNNY   39  28  64 NE9       30.05R WCI  33
MIDDLETON      SUNNY     38  28  68 NE5       30.05R WCI  34
WATERTOWN      SUNNY     40  28  62 NE6       30.03R
MONROE         SUNNY     37  30  75 NE13      30.02R WCI  29
JANESVILLE     SUNNY     39  28  65 NE10      30.01R WCI  32
$$

WIZ051-052-058>065-066-070>072-261400-
SOUTHEAST WISCONSIN

CITY           SKY/WX    TMP DP  RH WIND       PRES   REMARKS
MILWAUKEE      MOSUNNY   41  29  62 N13       30.02R
WAUKESHA       SUNNY     37  27  65 NE8       30.03  WCI  31
MILWAUKEE/TIMM SUNNY     39  27  60 N7        30.03R WCI  34
RACINE         SUNNY     41  32  70 N12       30.03R
BURLINGTON     SUNNY     38  30  72 N7        30.01R WCI  33
KENOSHA        SUNNY     41  34  76 N10       30.01R
FOND DU LAC    SUNNY     40  28  62 N7        30.04R
SHEBOYGAN      SUNNY     41  27  57 N10       30.03R
WEST BEND      SUNNY     39  25  56 N6        30.03R WCI  35
JUNEAU         SUNNY     38  27  62 NE8       30.05R WCI  33
$$

LSZ147-162-261400-
LAKE SUPERIOR

STATION/POSITION TIME  TEMP    WIND        PRES    WAVE
                       AIR SEA DIR/SP/G            HT/PER
                 (UTC) (F)     (DEG/KT/KT) (MB)    (FT/S)
W MID LAKE BUOY  1250   36 34   30/ 10/ 12 1022.3R   1/ 3
DEVILS ISLAND    1300   37      40/  7/  7 1021.8R
PORT WING        1240   30     170/  2/  3 1021.3R
SAXON HARBOR     1200   27        CALM     1020.3R
$$

LMZ867-665-643>646-261400-
LAKE MICHIGAN

STATION/POSITION TIME  TEMP    WIND        PRES    WAVE
                       AIR SEA DIR/SP/G            HT/PER
                 (UTC) (F)     (DEG/KT/KT) (MB)    (FT/S)
CHAMBERS ISLAND  1200   38     330/  7/ 10 1017.3R
NORTHPORT PIER   1200   37     330/ 10/ 13 1017.3R
SISTER BAY       1217   40     340/ 12/ 14   N/A
KEWAUNEE LAKESHO 1200   35     320/  5/  8 1016.1R
SHEBOYGAN LAKESH 1300   39      10/ 14/ 15 1017.7R
PORT WASHINGTON  1240   40      10/  6/ 11 1017.6R
MILWAUKEE LAKESH 1300   40      10/ 14/ 17   N/A
KENOSHA   LAKESH 1300   40      10/ 13/ 15 1016.3R
$$

TC  - TEMPERATURE IN CELSIUS
VSB - VISIBILITY IN STATUTE MILES
WCI - WIND CHILL INDEX
HX  - HEAT INDEX



USA.gov is the U.S. government's official web portal to all federal, state and local government web resources and services.